contact:dominique.lefevre@mio.osupytheas.fr, maurice.libes@osupytheas.fr, didier.mallarino@osupytheas.fr
Project:EMSO http://www.emso-fr.org/EMSO-France
Depth: 2436.0 m
Title:EMSO Ligure Ouest : Data MII capteur CSTAR
DateTime,Latitude,Longitude,Instrument_Serial,Reference_Counts,Signal_Counts,Corrected_Signal_raw_counts,Calculated_Beam_c_inverse_meters,Internal_thermistor_counts
DateTime,Latitude,Longitude,Instrument_Serial,Reference_Counts,Signal_Counts,Corrected_Signal_raw_counts,Calculated_Beam_c_inverse_meters,Internal_thermistor_counts
2019-06-07T00:02:01,42.805,6.029,CST-1368DR,9168,12830,15550,0.017,551
2019-06-07T00:05:02,42.805,6.029,CST-1368DR,9168,12827,15546,0.018,551
2019-06-07T00:08:04,42.805,6.029,CST-1368DR,9168,12830,15549,0.017,551
2019-06-07T00:11:05,42.805,6.029,CST-1368DR,9168,12829,15548,0.017,551
2019-06-07T00:14:07,42.805,6.029,CST-1368DR,9168,12827,15546,0.018,551
2019-06-07T00:17:08,42.805,6.029,CST-1368DR,9168,12829,15548,0.017,550
2019-06-07T00:20:09,42.805,6.029,CST-1368DR,9168,12830,15549,0.017,551
2019-06-07T00:23:11,42.805,6.029,CST-1368DR,9168,12830,15549,0.017,551
2019-06-07T00:26:12,42.805,6.029,CST-1368DR,9168,12827,15546,0.018,551
2019-06-07T00:29:14,42.805,6.029,CST-1368DR,9168,12829,15548,0.017,551
2019-06-07T00:32:15,42.805,6.029,CST-1368DR,9168,12830,15549,0.017,551
2019-06-07T00:35:16,42.805,6.029,CST-1368DR,9168,12828,15546,0.018,550
2019-06-07T00:38:18,42.805,6.029,CST-1368DR,9168,12826,15545,0.018,551
2019-06-07T00:41:19,42.805,6.029,CST-1368DR,9168,12829,15549,0.017,551
2019-06-07T00:44:21,42.805,6.029,CST-1368DR,9168,12826,15544,0.018,551
2019-06-07T00:47:22,42.805,6.029,CST-1368DR,9168,12829,15549,0.017,550
2019-06-07T00:50:23,42.805,6.029,CST-1368DR,9168,12829,15548,0.017,551
2019-06-07T00:53:25,42.805,6.029,CST-1368DR,9168,12827,15546,0.018,551
2019-06-07T00:56:26,42.805,6.029,CST-1368DR,9168,12829,15548,0.017,551
2019-06-07T00:59:28,42.805,6.029,CST-1368DR,9168,12828,15546,0.018,551
2019-06-07T01:02:29,42.805,6.029,CST-1368DR,9168,12826,15544,0.018,551
2019-06-07T01:05:30,42.805,6.029,CST-1368DR,9168,12828,15546,0.018,550
2019-06-07T01:08:32,42.805,6.029,CST-1368DR,9168,12829,15548,0.017,551
2019-06-07T01:11:33,42.805,6.029,CST-1368DR,9168,12828,15547,0.018,550
2019-06-07T01:14:35,42.805,6.029,CST-1368DR,9168,12828,15547,0.018,551
2019-06-07T01:17:36,42.805,6.029,CST-1368DR,9168,12827,15546,0.018,551
2019-06-07T01:20:38,42.805,6.029,CST-1368DR,9168,12828,15547,0.018,551
2019-06-07T01:23:39,42.805,6.029,CST-1368DR,9167,12827,15547,0.018,551
2019-06-07T01:26:40,42.805,6.029,CST-1368DR,9167,12826,15546,0.018,551
2019-06-07T01:29:42,42.805,6.029,CST-1368DR,9167,12825,15545,0.018,551
2019-06-07T01:32:43,42.805,6.029,CST-1368DR,9167,12826,15546,0.018,551
2019-06-07T01:35:45,42.805,6.029,CST-1368DR,9167,12827,15547,0.018,551
2019-06-07T01:38:46,42.805,6.029,CST-1368DR,9167,12825,15545,0.018,550
2019-06-07T01:41:47,42.805,6.029,CST-1368DR,9167,12828,15549,0.017,551
2019-06-07T01:44:49,42.805,6.029,CST-1368DR,9167,12828,15549,0.017,551
2019-06-07T01:47:50,42.805,6.029,CST-1368DR,9167,12827,15547,0.018,551
2019-06-07T01:50:52,42.805,6.029,CST-1368DR,9167,12828,15549,0.017,551
2019-06-07T01:53:53,42.805,6.029,CST-1368DR,9167,12827,15548,0.017,551
2019-06-07T01:56:54,42.805,6.029,CST-1368DR,9167,12825,15545,0.018,551
2019-06-07T01:59:56,42.805,6.029,CST-1368DR,9167,12826,15546,0.018,551
2019-06-07T02:02:57,42.805,6.029,CST-1368DR,9167,12827,15548,0.017,550
2019-06-07T02:05:59,42.805,6.029,CST-1368DR,9167,12827,15548,0.017,551
2019-06-07T02:09:00,42.805,6.029,CST-1368DR,9167,12826,15546,0.018,551
2019-06-07T02:12:01,42.805,6.029,CST-1368DR,9167,12827,15547,0.018,551
2019-06-07T02:15:03,42.805,6.029,CST-1368DR,9167,12827,15547,0.018,551
2019-06-07T02:18:04,42.805,6.029,CST-1368DR,9167,12827,15548,0.017,550
2019-06-07T02:21:06,42.805,6.029,CST-1368DR,9167,12827,15548,0.017,551
2019-06-07T02:24:07,42.805,6.029,CST-1368DR,9167,12826,15546,0.018,551
2019-06-07T02:27:09,42.805,6.029,CST-1368DR,9167,12827,15547,0.018,550
2019-06-07T02:30:10,42.805,6.029,CST-1368DR,9167,12826,15546,0.018,551
2019-06-07T02:33:11,42.805,6.029,CST-1368DR,9166,12826,15547,0.018,551
2019-06-07T02:36:13,42.805,6.029,CST-1368DR,9166,12822,15543,0.019,551
2019-06-07T02:39:14,42.805,6.029,CST-1368DR,9166,12825,15547,0.018,551
2019-06-07T02:42:16,42.805,6.029,CST-1368DR,9166,12827,15549,0.017,551
2019-06-07T02:45:17,42.805,6.029,CST-1368DR,9166,12826,15547,0.018,551
2019-06-07T02:48:18,42.805,6.029,CST-1368DR,9166,12823,15544,0.018,551
2019-06-07T02:51:20,42.805,6.029,CST-1368DR,9166,12826,15547,0.018,551
2019-06-07T02:54:21,42.805,6.029,CST-1368DR,9166,12826,15547,0.018,551
2019-06-07T02:57:23,42.805,6.029,CST-1368DR,9166,12823,15544,0.018,551
2019-06-07T03:00:24,42.805,6.029,CST-1368DR,9166,12826,15548,0.017,551
2019-06-07T03:03:25,42.805,6.029,CST-1368DR,9166,12826,15547,0.018,551
2019-06-07T03:06:27,42.805,6.029,CST-1368DR,9166,12824,15545,0.018,551
2019-06-07T03:09:28,42.805,6.029,CST-1368DR,9166,12825,15546,0.018,551
2019-06-07T03:12:30,42.805,6.029,CST-1368DR,9166,12826,15548,0.017,551
2019-06-07T03:15:31,42.805,6.029,CST-1368DR,9166,12826,15548,0.017,551
2019-06-07T03:18:32,42.805,6.029,CST-1368DR,9166,12825,15546,0.018,551
2019-06-07T03:21:34,42.805,6.029,CST-1368DR,9166,12825,15547,0.018,551
2019-06-07T03:24:35,42.805,6.029,CST-1368DR,9166,12826,15547,0.018,551
2019-06-07T03:27:37,42.805,6.029,CST-1368DR,9166,12823,15544,0.018,551
2019-06-07T03:30:38,42.805,6.029,CST-1368DR,9166,12826,15547,0.018,551
2019-06-07T03:33:40,42.805,6.029,CST-1368DR,9166,12824,15545,0.018,551
2019-06-07T03:36:41,42.805,6.029,CST-1368DR,9166,12823,15544,0.018,551
2019-06-07T03:39:42,42.805,6.029,CST-1368DR,9166,12826,15547,0.018,550
2019-06-07T03:42:44,42.805,6.029,CST-1368DR,9166,12825,15547,0.018,550
2019-06-07T03:45:45,42.805,6.029,CST-1368DR,9166,12823,15544,0.018,550
2019-06-07T03:48:47,42.805,6.029,CST-1368DR,9166,12826,15547,0.018,551
2019-06-07T03:51:48,42.805,6.029,CST-1368DR,9166,12826,15548,0.017,551
2019-06-07T03:54:49,42.805,6.029,CST-1368DR,9166,12827,15548,0.017,551
2019-06-07T03:57:51,42.805,6.029,CST-1368DR,9166,12825,15547,0.018,551
2019-06-07T04:00:52,42.805,6.029,CST-1368DR,9166,12825,15546,0.018,550
2019-06-07T04:03:54,42.805,6.029,CST-1368DR,9166,12826,15548,0.017,551
2019-06-07T04:06:55,42.805,6.029,CST-1368DR,9166,12825,15547,0.018,551
2019-06-07T04:09:56,42.805,6.029,CST-1368DR,9166,12825,15547,0.018,551
2019-06-07T04:12:58,42.805,6.029,CST-1368DR,9166,12826,15547,0.018,551
2019-06-07T04:15:59,42.805,6.029,CST-1368DR,9165,12825,15548,0.017,551
2019-06-07T04:19:01,42.805,6.029,CST-1368DR,9165,12825,15547,0.018,550
2019-06-07T04:22:02,42.805,6.029,CST-1368DR,9165,12825,15548,0.017,551
2019-06-07T04:25:03,42.805,6.029,CST-1368DR,9165,12823,15546,0.018,551
2019-06-07T04:28:05,42.805,6.029,CST-1368DR,9165,12824,15547,0.018,551
2019-06-07T04:31:06,42.805,6.029,CST-1368DR,9165,12823,15545,0.018,551
2019-06-07T04:34:08,42.805,6.029,CST-1368DR,9165,12825,15547,0.018,551
2019-06-07T04:37:09,42.805,6.029,CST-1368DR,9165,12825,15548,0.017,551
2019-06-07T04:40:11,42.805,6.029,CST-1368DR,9165,12819,15540,0.020,551
2019-06-07T04:43:12,42.805,6.029,CST-1368DR,9165,12823,15545,0.018,551
2019-06-07T04:46:13,42.805,6.029,CST-1368DR,9165,12825,15547,0.018,551
2019-06-07T04:49:15,42.805,6.029,CST-1368DR,9165,12824,15547,0.018,551
2019-06-07T04:52:16,42.805,6.029,CST-1368DR,9165,12817,15539,0.020,551
2019-06-07T04:55:18,42.805,6.029,CST-1368DR,9165,12824,15547,0.018,551
2019-06-07T04:58:19,42.805,6.029,CST-1368DR,9165,12823,15546,0.018,550
2019-06-07T05:01:20,42.805,6.029,CST-1368DR,9165,12824,15546,0.018,551
2019-06-07T05:04:22,42.805,6.029,CST-1368DR,9165,12821,15543,0.019,551
2019-06-07T05:07:23,42.805,6.029,CST-1368DR,9165,12825,15547,0.018,551
2019-06-07T05:10:25,42.805,6.029,CST-1368DR,9165,12822,15544,0.018,551
2019-06-07T05:13:26,42.805,6.029,CST-1368DR,9165,12823,15546,0.018,551
2019-06-07T05:16:27,42.805,6.029,CST-1368DR,9165,12823,15545,0.018,551
2019-06-07T05:19:29,42.805,6.029,CST-1368DR,9165,12824,15546,0.018,551
2019-06-07T05:22:30,42.805,6.029,CST-1368DR,9165,12823,15546,0.018,551
2019-06-07T05:25:32,42.805,6.029,CST-1368DR,9165,12823,15546,0.018,551
2019-06-07T05:28:33,42.805,6.029,CST-1368DR,9165,12823,15545,0.018,551
2019-06-07T05:31:35,42.805,6.029,CST-1368DR,9165,12823,15545,0.018,551
2019-06-07T05:34:36,42.805,6.029,CST-1368DR,9164,12822,15546,0.018,550
2019-06-07T05:37:37,42.805,6.029,CST-1368DR,9164,12823,15547,0.018,551
2019-06-07T05:40:39,42.805,6.029,CST-1368DR,9164,12823,15547,0.018,551
2019-06-07T05:43:40,42.805,6.029,CST-1368DR,9165,12824,15546,0.018,551
2019-06-07T05:46:42,42.805,6.029,CST-1368DR,9164,12823,15547,0.018,551
2019-06-07T05:49:43,42.805,6.029,CST-1368DR,9164,12823,15547,0.018,551
2019-06-07T05:52:44,42.805,6.029,CST-1368DR,9164,12823,15547,0.018,551
2019-06-07T05:55:46,42.805,6.029,CST-1368DR,9164,12823,15547,0.018,551
2019-06-07T05:58:47,42.805,6.029,CST-1368DR,9164,12824,15548,0.017,551
2019-06-07T06:01:49,42.805,6.029,CST-1368DR,9164,12816,15539,0.020,551
2019-06-07T06:04:50,42.805,6.029,CST-1368DR,9164,12822,15546,0.018,551
2019-06-07T06:07:51,42.805,6.029,CST-1368DR,9164,12822,15546,0.018,551
2019-06-07T06:10:53,42.805,6.029,CST-1368DR,9164,12823,15547,0.018,551
2019-06-07T06:13:54,42.805,6.029,CST-1368DR,9164,12823,15547,0.018,551
2019-06-07T06:16:56,42.805,6.029,CST-1368DR,9164,12821,15544,0.018,551
2019-06-07T06:19:57,42.805,6.029,CST-1368DR,9164,12823,15547,0.018,551
2019-06-07T06:22:58,42.805,6.029,CST-1368DR,9164,12823,15547,0.018,551
2019-06-07T06:26:00,42.805,6.029,CST-1368DR,9164,12823,15547,0.018,551
2019-06-07T06:29:01,42.805,6.029,CST-1368DR,9164,12822,15546,0.018,551
2019-06-07T06:32:03,42.805,6.029,CST-1368DR,9164,12822,15546,0.018,551
2019-06-07T06:35:04,42.805,6.029,CST-1368DR,9164,12823,15547,0.018,551
2019-06-07T06:38:06,42.805,6.029,CST-1368DR,9164,12816,15539,0.020,551
2019-06-07T06:41:07,42.805,6.029,CST-1368DR,9164,12822,15546,0.018,551
2019-06-07T06:44:08,42.805,6.029,CST-1368DR,9164,12819,15543,0.019,551
2019-06-07T06:47:10,42.805,6.029,CST-1368DR,9164,12819,15542,0.019,551
2019-06-07T06:50:11,42.805,6.029,CST-1368DR,9164,12821,15544,0.018,551
2019-06-07T06:53:13,42.805,6.029,CST-1368DR,9164,12822,15546,0.018,551
2019-06-07T06:56:14,42.805,6.029,CST-1368DR,9164,12823,15547,0.018,551
2019-06-07T06:59:15,42.805,6.029,CST-1368DR,9164,12822,15546,0.018,551
2019-06-07T07:02:17,42.805,6.029,CST-1368DR,9164,12823,15547,0.018,551
2019-06-07T07:05:18,42.805,6.029,CST-1368DR,9164,12822,15545,0.018,551
2019-06-07T07:08:20,42.805,6.029,CST-1368DR,9163,12823,15548,0.017,551
2019-06-07T07:11:21,42.805,6.029,CST-1368DR,9163,12822,15547,0.018,551
2019-06-07T07:14:22,42.805,6.029,CST-1368DR,9163,12823,15549,0.017,551
2019-06-07T07:17:24,42.805,6.029,CST-1368DR,9163,12823,15548,0.017,551
2019-06-07T07:20:25,42.805,6.029,CST-1368DR,9163,12822,15548,0.017,550
2019-06-07T07:23:27,42.805,6.029,CST-1368DR,9163,12822,15547,0.018,551
2019-06-07T07:26:28,42.805,6.029,CST-1368DR,9163,12822,15547,0.018,551
2019-06-07T07:29:29,42.805,6.029,CST-1368DR,9163,12822,15548,0.017,551
2019-06-07T07:32:31,42.805,6.029,CST-1368DR,9163,12822,15547,0.018,551
2019-06-07T07:35:32,42.805,6.029,CST-1368DR,9163,12822,15547,0.018,551
2019-06-07T07:38:34,42.805,6.029,CST-1368DR,9163,12820,15545,0.018,551
2019-06-07T07:41:35,42.805,6.029,CST-1368DR,9163,12823,15548,0.017,551
2019-06-07T07:44:37,42.805,6.029,CST-1368DR,9163,12820,15545,0.018,551
2019-06-07T07:47:38,42.805,6.029,CST-1368DR,9163,12821,15547,0.018,551
2019-06-07T07:50:39,42.805,6.029,CST-1368DR,9163,12821,15546,0.018,551
2019-06-07T07:53:41,42.805,6.029,CST-1368DR,9163,12822,15548,0.017,551
2019-06-07T07:56:42,42.805,6.029,CST-1368DR,9163,12822,15547,0.018,551
2019-06-07T07:59:44,42.805,6.029,CST-1368DR,9163,12821,15547,0.018,551
2019-06-07T08:02:45,42.805,6.029,CST-1368DR,9163,12822,15547,0.018,551
2019-06-07T08:05:46,42.805,6.029,CST-1368DR,9163,12820,15544,0.018,551
2019-06-07T08:08:48,42.805,6.029,CST-1368DR,9163,12821,15546,0.018,551
2019-06-07T08:11:49,42.805,6.029,CST-1368DR,9163,12820,15545,0.018,551
2019-06-07T08:14:51,42.805,6.029,CST-1368DR,9163,12822,15547,0.018,551
2019-06-07T08:17:52,42.805,6.029,CST-1368DR,9163,12822,15548,0.017,551
2019-06-07T08:20:53,42.805,6.029,CST-1368DR,9163,12821,15547,0.018,551
2019-06-07T08:23:55,42.805,6.029,CST-1368DR,9163,12821,15546,0.018,551
2019-06-07T08:26:56,42.805,6.029,CST-1368DR,9163,12822,15547,0.018,551
2019-06-07T08:29:58,42.805,6.029,CST-1368DR,9163,12822,15547,0.018,551
2019-06-07T08:32:59,42.805,6.029,CST-1368DR,9163,12819,15544,0.018,551
2019-06-07T08:36:00,42.805,6.029,CST-1368DR,9163,12820,15545,0.018,551
2019-06-07T08:39:02,42.805,6.029,CST-1368DR,9163,12821,15547,0.018,550
2019-06-07T08:42:03,42.805,6.029,CST-1368DR,9163,12821,15546,0.018,550
2019-06-07T08:45:05,42.805,6.029,CST-1368DR,9163,12822,15548,0.017,550
2019-06-07T08:48:06,42.805,6.029,CST-1368DR,9163,12821,15546,0.018,551
2019-06-07T08:51:08,42.805,6.029,CST-1368DR,9163,12821,15547,0.018,551
2019-06-07T08:54:09,42.805,6.029,CST-1368DR,9163,12822,15548,0.017,551
2019-06-07T08:57:10,42.805,6.029,CST-1368DR,9163,12819,15543,0.019,551
2019-06-07T09:00:12,42.805,6.029,CST-1368DR,9163,12820,15545,0.018,551
2019-06-07T09:03:13,42.805,6.029,CST-1368DR,9162,12820,15547,0.018,551
2019-06-07T09:06:15,42.805,6.029,CST-1368DR,9162,12817,15543,0.019,551
2019-06-07T09:09:16,42.805,6.029,CST-1368DR,9162,12821,15547,0.018,551
2019-06-07T09:12:17,42.805,6.029,CST-1368DR,9163,12822,15548,0.017,551
2019-06-07T09:15:19,42.805,6.029,CST-1368DR,9162,12820,15547,0.018,551
2019-06-07T09:18:20,42.805,6.029,CST-1368DR,9162,12818,15545,0.018,551
2019-06-07T09:21:22,42.805,6.029,CST-1368DR,9162,12820,15547,0.018,551
2019-06-07T09:24:23,42.805,6.029,CST-1368DR,9162,12820,15547,0.018,551
2019-06-07T09:27:24,42.805,6.029,CST-1368DR,9162,12821,15548,0.017,551
2019-06-07T09:30:26,42.805,6.029,CST-1368DR,9162,12820,15547,0.018,551
2019-06-07T09:33:27,42.805,6.029,CST-1368DR,9162,12820,15546,0.018,551
2019-06-07T09:36:29,42.805,6.029,CST-1368DR,9162,12819,15546,0.018,551
2019-06-07T09:39:30,42.805,6.029,CST-1368DR,9162,12820,15547,0.018,551
2019-06-07T09:42:32,42.805,6.029,CST-1368DR,9162,12820,15547,0.018,551
2019-06-07T09:45:33,42.805,6.029,CST-1368DR,9162,12821,15547,0.018,551
2019-06-07T09:48:34,42.805,6.029,CST-1368DR,9162,12821,15547,0.018,551
2019-06-07T09:51:36,42.805,6.029,CST-1368DR,9162,12821,15547,0.018,551
2019-06-07T09:54:37,42.805,6.029,CST-1368DR,9162,12820,15546,0.018,550
2019-06-07T09:57:39,42.805,6.029,CST-1368DR,9162,12821,15547,0.018,551
2019-06-07T10:00:40,42.805,6.029,CST-1368DR,9162,12821,15548,0.017,551
2019-06-07T10:03:41,42.805,6.029,CST-1368DR,9162,12820,15546,0.018,551
2019-06-07T10:06:43,42.805,6.029,CST-1368DR,9162,12820,15547,0.018,551
2019-06-07T10:09:44,42.805,6.029,CST-1368DR,9162,12816,15541,0.019,550
2019-06-07T10:12:46,42.805,6.029,CST-1368DR,9162,12820,15546,0.018,551
2019-06-07T10:15:47,42.805,6.029,CST-1368DR,9162,12820,15547,0.018,551
2019-06-07T10:18:48,42.805,6.029,CST-1368DR,9162,12819,15545,0.018,551
2019-06-07T10:21:50,42.805,6.029,CST-1368DR,9162,12820,15547,0.018,551
2019-06-07T10:24:51,42.805,6.029,CST-1368DR,9162,12821,15548,0.017,551
2019-06-07T10:27:53,42.805,6.029,CST-1368DR,9162,12820,15546,0.018,551
2019-06-07T10:30:54,42.805,6.029,CST-1368DR,9161,12819,15547,0.018,551
2019-06-07T10:33:55,42.805,6.029,CST-1368DR,9161,12820,15548,0.017,551
2019-06-07T10:36:57,42.805,6.029,CST-1368DR,9161,12819,15547,0.018,551
2019-06-07T10:39:58,42.805,6.029,CST-1368DR,9161,12820,15549,0.017,551
2019-06-07T10:43:00,42.805,6.029,CST-1368DR,9161,12820,15548,0.017,551
2019-06-07T10:46:01,42.805,6.029,CST-1368DR,9161,12820,15548,0.017,551
2019-06-07T10:49:03,42.805,6.029,CST-1368DR,9161,12819,15547,0.018,551
2019-06-07T10:52:04,42.805,6.029,CST-1368DR,9161,12819,15547,0.018,551
2019-06-07T10:55:05,42.805,6.029,CST-1368DR,9161,12820,15548,0.017,551
2019-06-07T10:58:07,42.805,6.029,CST-1368DR,9161,12821,15549,0.017,551
2019-06-07T11:01:08,42.805,6.029,CST-1368DR,9161,12810,15535,0.021,551
2019-06-07T11:04:10,42.805,6.029,CST-1368DR,9161,12819,15546,0.018,551
2019-06-07T11:07:11,42.805,6.029,CST-1368DR,9161,12819,15546,0.018,551
2019-06-07T11:10:12,42.805,6.029,CST-1368DR,9161,12817,15544,0.018,551
2019-06-07T11:13:14,42.805,6.029,CST-1368DR,9161,12819,15547,0.018,551
2019-06-07T11:16:15,42.805,6.029,CST-1368DR,9161,12819,15547,0.018,551
2019-06-07T11:19:17,42.805,6.029,CST-1368DR,9161,12819,15547,0.018,551
2019-06-07T11:22:18,42.805,6.029,CST-1368DR,9161,12817,15544,0.018,551
2019-06-07T11:25:19,42.805,6.029,CST-1368DR,9161,12819,15546,0.018,551
2019-06-07T11:28:21,42.805,6.029,CST-1368DR,9161,12818,15545,0.018,550
2019-06-07T11:31:22,42.805,6.029,CST-1368DR,9161,12818,15545,0.018,551
2019-06-07T11:34:24,42.805,6.029,CST-1368DR,9161,12818,15546,0.018,550
2019-06-07T11:37:25,42.805,6.029,CST-1368DR,9161,12819,15547,0.018,551
2019-06-07T11:40:27,42.805,6.029,CST-1368DR,9161,12818,15546,0.018,550
2019-06-07T11:43:28,42.805,6.029,CST-1368DR,9161,12820,15548,0.017,551
2019-06-07T11:46:29,42.805,6.029,CST-1368DR,9161,12816,15543,0.019,551
2019-06-07T11:49:31,42.805,6.029,CST-1368DR,9161,12820,15548,0.017,551
2019-06-07T11:52:32,42.805,6.029,CST-1368DR,9161,12818,15546,0.018,551
2019-06-07T11:55:34,42.805,6.029,CST-1368DR,9161,12815,15542,0.019,551
2019-06-07T11:58:35,42.805,6.029,CST-1368DR,9161,12813,15539,0.020,550
2019-06-07T12:01:36,42.805,6.029,CST-1368DR,9160,12818,15547,0.018,551
2019-06-07T12:04:38,42.805,6.029,CST-1368DR,9161,12817,15545,0.018,551
2019-06-07T12:07:39,42.805,6.029,CST-1368DR,9160,12817,15546,0.018,551
2019-06-07T12:10:41,42.805,6.029,CST-1368DR,9160,12818,15547,0.018,551
2019-06-07T12:13:42,42.805,6.029,CST-1368DR,9160,12817,15546,0.018,551
2019-06-07T12:16:43,42.805,6.029,CST-1368DR,9161,12816,15543,0.019,551
2019-06-07T12:19:45,42.805,6.029,CST-1368DR,9161,12817,15544,0.018,551
2019-06-07T12:22:46,42.805,6.029,CST-1368DR,9160,12817,15546,0.018,551
2019-06-07T12:25:48,42.805,6.029,CST-1368DR,9160,12817,15546,0.018,551
2019-06-07T12:28:49,42.805,6.029,CST-1368DR,9160,12818,15547,0.018,551
2019-06-07T12:31:50,42.805,6.029,CST-1368DR,9160,12817,15546,0.018,551
2019-06-07T12:34:52,42.805,6.029,CST-1368DR,9160,12810,15538,0.020,551
2019-06-07T12:37:53,42.805,6.029,CST-1368DR,9160,12817,15546,0.018,551
2019-06-07T12:40:55,42.805,6.029,CST-1368DR,9160,12819,15548,0.017,551
2019-06-07T12:43:56,42.805,6.029,CST-1368DR,9160,12818,15547,0.018,551
2019-06-07T12:46:57,42.805,6.029,CST-1368DR,9160,12818,15547,0.018,551
2019-06-07T12:49:59,42.805,6.029,CST-1368DR,9160,12817,15546,0.018,551
2019-06-07T12:53:00,42.805,6.029,CST-1368DR,9160,12816,15544,0.018,551
2019-06-07T12:56:02,42.805,6.029,CST-1368DR,9160,12816,15545,0.018,551
2019-06-07T12:59:03,42.805,6.029,CST-1368DR,9160,12817,15546,0.018,551
2019-06-07T13:02:05,42.805,6.029,CST-1368DR,9160,12819,15548,0.017,551
2019-06-07T13:05:06,42.805,6.029,CST-1368DR,9160,12815,15543,0.019,551
2019-06-07T13:08:07,42.805,6.029,CST-1368DR,9160,12816,15545,0.018,551
2019-06-07T13:11:09,42.805,6.029,CST-1368DR,9160,12818,15547,0.018,551
2019-06-07T13:14:10,42.805,6.029,CST-1368DR,9160,12819,15548,0.017,551
2019-06-07T13:17:12,42.805,6.029,CST-1368DR,9160,12818,15548,0.017,551
2019-06-07T13:20:13,42.805,6.029,CST-1368DR,9160,12816,15545,0.018,551
2019-06-07T13:23:14,42.805,6.029,CST-1368DR,9160,12815,15544,0.018,551
2019-06-07T13:26:16,42.805,6.029,CST-1368DR,9160,12818,15548,0.017,551
2019-06-07T13:29:17,42.805,6.029,CST-1368DR,9159,12808,15536,0.021,551
2019-06-07T13:32:19,42.805,6.029,CST-1368DR,9160,12816,15545,0.018,551
2019-06-07T13:35:20,42.805,6.029,CST-1368DR,9159,12816,15546,0.018,551
2019-06-07T13:38:21,42.805,6.029,CST-1368DR,9159,12818,15549,0.017,551
2019-06-07T13:41:23,42.805,6.029,CST-1368DR,9159,12815,15545,0.018,551
2019-06-07T13:44:24,42.805,6.029,CST-1368DR,9159,12817,15548,0.017,551
2019-06-07T13:47:26,42.805,6.029,CST-1368DR,9159,12815,15545,0.018,551
2019-06-07T13:50:27,42.805,6.029,CST-1368DR,9159,12817,15548,0.017,551
2019-06-07T13:53:29,42.805,6.029,CST-1368DR,9159,12819,15549,0.017,551
2019-06-07T13:56:30,42.805,6.029,CST-1368DR,9159,12818,15549,0.017,551
2019-06-07T13:59:31,42.805,6.029,CST-1368DR,9159,12816,15546,0.018,550
2019-06-07T14:02:33,42.805,6.029,CST-1368DR,9159,12818,15549,0.017,550
2019-06-07T14:05:34,42.805,6.029,CST-1368DR,9159,12817,15548,0.017,551
2019-06-07T14:08:36,42.805,6.029,CST-1368DR,9159,12817,15548,0.017,551
2019-06-07T14:11:37,42.805,6.029,CST-1368DR,9159,12817,15547,0.018,551
2019-06-07T14:14:38,42.805,6.029,CST-1368DR,9159,12816,15546,0.018,551
2019-06-07T14:17:40,42.805,6.029,CST-1368DR,9159,12814,15544,0.018,550
2019-06-07T14:20:41,42.805,6.029,CST-1368DR,9159,12814,15543,0.019,551
2019-06-07T14:23:43,42.805,6.029,CST-1368DR,9159,12817,15548,0.017,551
2019-06-07T14:26:44,42.805,6.029,CST-1368DR,9159,12817,15548,0.017,550
2019-06-07T14:29:45,42.805,6.029,CST-1368DR,9159,12816,15546,0.018,551
2019-06-07T14:32:47,42.805,6.029,CST-1368DR,9159,12817,15548,0.017,551
2019-06-07T14:35:48,42.805,6.029,CST-1368DR,9159,12816,15546,0.018,551
2019-06-07T14:38:50,42.805,6.029,CST-1368DR,9159,12817,15548,0.017,551
2019-06-07T14:41:51,42.805,6.029,CST-1368DR,9159,12816,15547,0.018,551
2019-06-07T14:44:52,42.805,6.029,CST-1368DR,9159,12816,15546,0.018,551
2019-06-07T14:47:54,42.805,6.029,CST-1368DR,9159,12817,15548,0.017,551
2019-06-07T14:50:55,42.805,6.029,CST-1368DR,9159,12817,15548,0.017,551
2019-06-07T14:53:57,42.805,6.029,CST-1368DR,9159,12816,15546,0.018,551
2019-06-07T14:56:58,42.805,6.029,CST-1368DR,9159,12816,15546,0.018,551
2019-06-07T15:00:00,42.805,6.029,CST-1368DR,9159,12815,15545,0.018,550
2019-06-07T15:03:01,42.805,6.029,CST-1368DR,9159,12816,15546,0.018,551
2019-06-07T15:06:02,42.805,6.029,CST-1368DR,9159,12816,15546,0.018,551
2019-06-07T15:09:04,42.805,6.029,CST-1368DR,9159,12814,15544,0.018,551
2019-06-07T15:12:05,42.805,6.029,CST-1368DR,9159,12816,15546,0.018,551
2019-06-07T15:15:07,42.805,6.029,CST-1368DR,9159,12817,15547,0.018,551
2019-06-07T15:18:08,42.805,6.029,CST-1368DR,9159,12817,15547,0.018,551
2019-06-07T15:21:09,42.805,6.029,CST-1368DR,9159,12815,15546,0.018,551
2019-06-07T15:24:11,42.805,6.029,CST-1368DR,9158,12813,15544,0.018,551
2019-06-07T15:27:12,42.805,6.029,CST-1368DR,9158,12813,15544,0.018,551
2019-06-07T15:30:14,42.805,6.029,CST-1368DR,9158,12816,15548,0.017,551
2019-06-07T15:33:15,42.805,6.029,CST-1368DR,9158,12817,15550,0.017,551
2019-06-07T15:36:16,42.805,6.029,CST-1368DR,9158,12816,15547,0.018,551
2019-06-07T15:39:18,42.805,6.029,CST-1368DR,9158,12817,15549,0.017,550
2019-06-07T15:42:19,42.805,6.029,CST-1368DR,9158,12815,15546,0.018,550
2019-06-07T15:45:21,42.805,6.029,CST-1368DR,9158,12815,15547,0.018,551
2019-06-07T15:48:22,42.805,6.029,CST-1368DR,9158,12814,15546,0.018,551
2019-06-07T15:51:23,42.805,6.029,CST-1368DR,9158,12817,15549,0.017,551
2019-06-07T15:54:25,42.805,6.029,CST-1368DR,9158,12816,15547,0.018,551
2019-06-07T15:57:26,42.805,6.029,CST-1368DR,9158,12816,15548,0.017,551
2019-06-07T16:00:28,42.805,6.029,CST-1368DR,9158,12812,15543,0.019,551
2019-06-07T16:03:29,42.805,6.029,CST-1368DR,9158,12815,15546,0.018,551
2019-06-07T16:06:31,42.805,6.029,CST-1368DR,9158,12816,15548,0.017,551
2019-06-07T16:09:32,42.805,6.029,CST-1368DR,9158,12814,15546,0.018,551
2019-06-07T16:12:33,42.805,6.029,CST-1368DR,9158,12815,15546,0.018,551
2019-06-07T16:15:35,42.805,6.029,CST-1368DR,9158,12810,15541,0.019,551
2019-06-07T16:18:36,42.805,6.029,CST-1368DR,9158,12815,15546,0.018,551
2019-06-07T16:21:38,42.805,6.029,CST-1368DR,9158,12814,15546,0.018,551
2019-06-07T16:24:39,42.805,6.029,CST-1368DR,9158,12814,15546,0.018,551
2019-06-07T16:27:40,42.805,6.029,CST-1368DR,9158,12813,15545,0.018,551
2019-06-07T16:30:42,42.805,6.029,CST-1368DR,9158,12814,15545,0.018,551
2019-06-07T16:33:43,42.805,6.029,CST-1368DR,9158,12814,15545,0.018,551
2019-06-07T16:36:45,42.805,6.029,CST-1368DR,9158,12815,15547,0.018,551